EW2142 Weather Reports


time (UTC)temp
C
wind
direction
speed
KPH
gust
KPH
rain 1hr
cm
rain 24hr
cm
rain mn
cm
humidity
%
barometer
mb
20260507213524 5 0 0.0 0.0 0.00 0.00 0.00 63 1019.2
20260507213003 5 0 0.0 0.0 0.00 0.00 0.00 63 1019.2
20260507212503 5 0 0.0 0.0 0.00 0.00 0.00 62 1019.1
20260507212003 5 0 0.0 0.0 0.00 0.00 0.00 62 1019.1
20260507211503 5 0 0.0 0.0 0.00 0.00 0.00 61 1019.0
20260507211002 5 0 0.0 0.0 0.00 0.00 0.00 61 1019.0
20260507210503 5 0 0.0 0.0 0.00 0.00 0.00 61 1018.9
20260507210003 5 0 0.0 0.0 0.00 0.00 0.00 61 1018.9
20260507205524 5 0 0.0 0.0 0.00 0.00 0.00 59 1018.8
20260507205003 6 0 0.0 0.0 0.00 0.00 0.00 58 1018.8
20260507204503 6 0 0.0 0.0 0.00 0.00 0.00 58 1018.8
20260507204003 6 0 0.0 0.0 0.00 0.00 0.00 58 1018.8
20260507203503 6 0 0.0 0.0 0.00 0.00 0.00 58 1018.7
20260507203003 6 0 0.0 0.0 0.00 0.00 0.00 56 1018.6
20260507202503 6 0 0.0 0.0 0.00 0.00 0.00 55 1018.6
20260507202003 7 0 0.0 0.0 0.00 0.00 0.00 54 1018.6
20260507201503 7 0 0.0 0.0 0.00 0.00 0.00 53 1018.6
20260507201002 7 0 0.0 0.0 0.00 0.00 0.00 53 1018.6
20260507200524 7 0 0.0 0.0 0.00 0.00 0.00 53 1018.5
20260507200003 7 0 0.0 0.0 0.00 0.00 0.00 52 1018.5
20260507195524 7 0 0.0 0.0 0.00 0.00 0.00 52 1018.5
20260507195003 7 0 0.0 0.0 0.00 0.00 0.00 51 1018.4
20260507194503 8 0 0.0 0.0 0.00 0.00 0.00 50 1018.3
20260507194024 8 0 0.0 0.0 0.00 0.00 0.00 49 1018.3
20260507193503 8 0 0.0 0.0 0.00 0.00 0.00 49 1018.3
20260507193003 8 0 0.0 0.0 0.00 0.00 0.00 48 1018.2
20260507192503 8 0 0.0 0.0 0.00 0.00 0.00 48 1018.1
20260507192003 9 0 0.0 0.0 0.00 0.00 0.00 47 1018.0
20260507191503 9 0 0.0 0.0 0.00 0.00 0.00 46 1018.0
20260507191024 10 0 0.0 0.0 0.00 0.00 0.00 45 1018.0
20260507190503 10 0 0.0 0.0 0.00 0.00 0.00 44 1017.8
20260507190004 10 0 0.0 0.0 0.00 0.00 0.00 42 1017.8
20260507185503 10 0 0.0 0.0 0.00 0.00 0.00 41 1017.7
20260507185003 11 0 0.0 0.0 0.00 0.00 0.00 41 1017.6
20260507184503 11 0 0.0 0.0 0.00 0.00 0.00 40 1017.5
20260507184003 11 0 0.0 0.0 0.00 0.00 0.00 38 1017.5
20260507183503 12 336 0.0 1.6 0.00 0.00 0.00 36 1017.5
20260507183024 12 336 0.0 1.6 0.00 0.00 0.00 36 1017.4
20260507182503 12 311 0.0 1.6 0.00 0.00 0.00 36 1017.4
20260507182003 12 307 0.0 3.2 0.00 0.00 0.00 33 1017.3
20260507181503 13 309 0.0 3.2 0.00 0.00 0.00 32 1017.3
20260507181003 13 306 0.0 4.8 0.00 0.00 0.00 31 1017.3
20260507180502 14 300 0.0 4.8 0.00 0.00 0.00 29 1017.3
20260507180003 15 297 0.0 3.2 0.00 0.00 0.00 28 1017.3
20260507175503 15 323 0.0 1.6 0.00 0.00 0.00 27 1017.2
20260507175003 16 294 0.0 1.6 0.00 0.00 0.00 26 1017.2
20260507174503 15 289 0.0 3.2 0.00 0.00 0.00 27 1017.1
20260507174003 16 296 0.0 3.2 0.00 0.00 0.00 26 1017.1
20260507173503 16 300 0.0 3.2 0.00 0.00 0.00 24 1017.0
20260507173003 17 60 0.0 1.6 0.00 0.00 0.00 25 1017.1
20260507172503 17 127 0.0 1.6 0.00 0.00 0.00 24 1017.0
20260507172003 17 277 0.0 1.6 0.00 0.00 0.00 26 1017.0
20260507171503 16 302 0.0 6.4 0.00 0.00 0.00 27 1017.0
20260507171003 16 306 1.6 6.4 0.00 0.00 0.00 26 1017.0
20260507170503 16 314 1.6 8.0 0.00 0.00 0.00 25 1016.9
20260507170003 16 317 0.0 8.0 0.00 0.00 0.00 26 1016.9
20260507165502 17 314 0.0 3.2 0.00 0.00 0.00 25 1016.8
20260507165003 17 321 0.0 4.8 0.00 0.00 0.00 24 1016.8
20260507164503 17 322 0.0 4.8 0.00 0.00 0.00 25 1016.8
20260507164003 17 316 0.0 8.0 0.00 0.00 0.00 25 1016.7
20260507163503 17 306 0.0 8.0 0.00 0.00 0.00 24 1016.7
20260507163024 17 289 0.0 3.2 0.00 0.00 0.00 24 1016.6
20260507162503 17 302 1.6 8.0 0.00 0.00 0.00 24 1016.6
20260507162003 17 302 0.0 8.0 0.00 0.00 0.00 23 1016.6
20260507161503 17 260 0.0 1.6 0.00 0.00 0.00 25 1016.6
20260507161024 17 296 0.0 8.0 0.00 0.00 0.00 25 1016.6
20260507160503 17 295 0.0 8.0 0.00 0.00 0.00 24 1016.6
20260507160002 17 307 1.6 17.7 0.00 0.00 0.00 25 1016.6
20260507155503 17 312 1.6 17.7 0.00 0.00 0.00 26 1016.5
20260507155024 17 307 0.0 6.4 0.00 0.00 0.00 25 1016.5
20260507154503 17 305 1.6 4.8 0.00 0.00 0.00 27 1016.6
20260507154003 17 301 0.0 4.8 0.00 0.00 0.00 25 1016.5
20260507153503 17 299 1.6 6.4 0.00 0.00 0.00 26 1016.5
20260507153003 16 309 1.6 8.0 0.00 0.00 0.00 27 1016.5
20260507152503 17 313 1.6 8.0 0.00 0.00 0.00 25 1016.5
20260507152024 17 301 1.6 4.8 0.00 0.00 0.00 26 1016.4
20260507151503 17 292 1.6 8.0 0.00 0.00 0.00 26 1016.4
20260507151003 16 302 1.6 8.0 0.00 0.00 0.00 27 1016.3
20260507150502 16 305 1.6 8.0 0.00 0.00 0.00 26 1016.4
20260507150003 16 312 1.6 14.5 0.00 0.00 0.00 26 1016.3
20260507145503 17 315 1.6 14.5 0.00 0.00 0.00 25 1016.4
20260507145003 16 304 3.2 11.3 0.00 0.00 0.00 27 1016.3
20260507144502 17 297 3.2 11.3 0.00 0.00 0.00 25 1016.3
20260507144003 17 298 1.6 8.0 0.00 0.00 0.00 24 1016.3
20260507143524 18 303 1.6 6.4 0.00 0.00 0.00 25 1016.3
20260507143003 18 286 0.0 4.8 0.00 0.00 0.00 27 1016.2
20260507142524 17 292 1.6 8.0 0.00 0.00 0.00 26 1016.2
20260507142003 17 288 1.6 8.0 0.00 0.00 0.00 27 1016.1
20260507141503 17 290 1.6 9.7 0.00 0.00 0.00 29 1016.2
20260507141003 17 287 1.6 9.7 0.00 0.00 0.00 27 1016.1
20260507140523 17 272 0.0 6.4 0.00 0.00 0.00 25 1016.1
20260507140024 17 294 1.6 6.4 0.00 0.00 0.00 27 1016.1
20260507135524 17 301 1.6 6.4 0.00 0.00 0.00 27 1016.2
20260507135024 17 305 1.6 6.4 0.00 0.00 0.00 28 1016.1
20260507134503 17 315 1.6 11.3 0.00 0.00 0.00 30 1016.1
20260507134003 17 303 1.6 11.3 0.00 0.00 0.00 27 1016.1
20260507133503 17 283 1.6 8.0 0.00 0.00 0.00 26 1016.1
20260507133024 17 308 0.0 6.4 0.00 0.00 0.00 30 1016.0
20260507132503 17 309 1.6 9.7 0.00 0.00 0.00 28 1016.0
20260507132024 17 301 1.6 9.7 0.00 0.00 0.00 29 1016.1
20260507131503 17 292 1.6 6.4 0.00 0.00 0.00 30 1016.1
20260507131003 17 300 1.6 8.0 0.00 0.00 0.00 30 1016.0
20260507130503 16 311 1.6 9.7 0.00 0.00 0.00 33 1016.1
20260507130003 16 312 1.6 11.3 0.00 0.00 0.00 29 1016.0
20260507125503 17 314 1.6 11.3 0.00 0.00 0.00 31 1016.0
20260507125002 17 308 1.6 6.4 0.00 0.00 0.00 30 1015.9
20260507124503 16 308 3.2 11.3 0.00 0.00 0.00 34 1015.9
20260507124024 16 309 1.6 11.3 0.00 0.00 0.00 31 1015.9
20260507123503 16 308 1.6 6.4 0.00 0.00 0.00 31 1015.9
20260507123024 16 303 1.6 9.7 0.00 0.00 0.00 32 1015.9
20260507122503 17 293 1.6 9.7 0.00 0.00 0.00 30 1015.8
20260507122024 17 276 1.6 6.4 0.00 0.00 0.00 32 1015.7
20260507121503 16 310 1.6 11.3 0.00 0.00 0.00 32 1015.7
20260507121003 16 311 1.6 11.3 0.00 0.00 0.00 31 1015.7
20260507120503 16 308 1.6 9.7 0.00 0.00 0.00 32 1015.7
20260507120003 16 306 1.6 9.7 0.00 0.00 0.00 32 1015.6
20260507115503 16 307 1.6 12.9 0.00 0.00 0.00 34 1015.7
20260507115003 17 307 1.6 12.9 0.00 0.00 0.00 31 1015.6
20260507114503 17 298 0.0 6.4 0.00 0.00 0.00 34 1015.6
20260507114002 17 302 0.0 6.4 0.00 0.00 0.00 33 1015.6
20260507113503 17 317 0.0 3.2 0.00 0.00 0.00 33 1015.6
20260507113003 17 305 0.0 6.4 0.00 0.00 0.00 35 1015.6
20260507112503 16 262 0.0 9.7 0.00 0.00 0.00 38 1015.7
20260507112024 16 236 1.6 9.7 0.00 0.00 0.00 38 1015.7
20260507111503 16 286 1.6 8.0 0.00 0.00 0.00 36 1015.7
20260507111003 16 289 1.6 8.0 0.00 0.00 0.00 38 1015.7
20260507110503 16 268 1.6 6.4 0.00 0.00 0.00 40 1015.6
20260507110003 16 279 0.0 4.8 0.00 0.00 0.00 41 1015.7
20260507105503 15 278 0.0 4.8 0.00 0.00 0.00 42 1015.6
20260507105002 15 297 1.6 8.0 0.00 0.00 0.00 42 1015.6
20260507104503 15 302 1.6 9.7 0.00 0.00 0.00 41 1015.7
20260507104003 15 305 1.6 9.7 0.00 0.00 0.00 42 1015.7
20260507103523 15 305 1.6 8.0 0.00 0.00 0.00 41 1015.7
20260507103003 15 303 0.0 6.4 0.00 0.00 0.00 41 1015.7
20260507102503 15 314 0.0 3.2 0.00 0.00 0.00 42 1015.6
20260507102003 15 306 0.0 6.4 0.00 0.00 0.00 42 1015.6
20260507101503 15 308 1.6 6.4 0.00 0.00 0.00 42 1015.5
20260507101024 15 314 0.0 6.4 0.00 0.00 0.00 44 1015.5
20260507100503 14 309 1.6 11.3 0.00 0.00 0.00 46 1015.5
20260507100024 14 311 1.6 11.3 0.00 0.00 0.00 43 1015.5
20260507095503 14 324 0.0 8.0 0.00 0.00 0.00 45 1015.4
20260507095003 14 326 0.0 4.8 0.00 0.00 0.00 49 1015.4
20260507094503 14 282 0.0 4.8 0.00 0.00 0.00 48 1015.3
20260507094003 14 285 0.0 3.2 0.00 0.00 0.00 48 1015.2
20260507093503 14 301 1.6 6.4 0.00 0.00 0.00 49 1015.2
20260507093024 13 314 1.6 6.4 0.00 0.00 0.00 51 1015.2
20260507092503 13 311 1.6 8.0 0.00 0.00 0.00 55 1015.1
20260507092003 13 308 1.6 6.4 0.00 0.00 0.00 53 1015.1
20260507091503 13 307 0.0 6.4 0.00 0.00 0.00 55 1015.2
20260507091003 12 309 0.0 6.4 0.00 0.00 0.00 56 1015.2
20260507090503 12 307 0.0 6.4 0.00 0.00 0.00 58 1015.1
20260507090003 12 309 1.6 11.3 0.00 0.00 0.00 56 1015.2
20260507085502 12 309 1.6 11.3 0.00 0.00 0.00 56 1015.2
20260507085002 13 271 0.0 1.6 0.00 0.00 0.00 58 1015.2
20260507084503 12 309 0.0 8.0 0.00 0.00 0.00 58 1015.2
20260507084003 12 309 0.0 8.0 0.00 0.00 0.00 59 1015.2
20260507083502 12 303 0.0 3.2 0.00 0.00 0.00 58 1015.2
20260507083004 12 319 0.0 8.0 0.00 0.00 0.00 61 1015.2
20260507082503 12 317 0.0 8.0 0.00 0.00 0.00 61 1015.2
20260507082024 12 311 0.0 4.8 0.00 0.00 0.00 61 1015.2
20260507081503 12 312 0.0 4.8 0.00 0.00 0.00 60 1015.1
20260507081003 12 294 0.0 3.2 0.00 0.00 0.00 63 1015.0
20260507080503 12 306 0.0 6.4 0.00 0.00 0.00 62 1015.0
20260507080003 11 311 0.0 6.4 0.00 0.00 0.00 63 1015.0
20260507075503 11 306 0.0 4.8 0.00 0.00 0.00 63 1014.9
20260507075003 11 308 0.0 4.8 0.00 0.00 0.00 61 1014.9
20260507074502 11 311 0.0 3.2 0.00 0.00 0.00 63 1014.9
20260507074003 11 296 0.0 3.2 0.00 0.00 0.00 63 1014.8
20260507073503 11 297 0.0 3.2 0.00 0.00 0.00 63 1014.8
20260507073003 10 305 0.0 4.8 0.00 0.00 0.00 61 1014.8
20260507072503 10 306 1.6 6.4 0.00 0.00 0.00 60 1014.8
20260507072003 10 314 1.6 6.4 0.00 0.00 0.00 62 1014.8
20260507071524 10 319 0.0 4.8 0.00 0.00 0.00 63 1014.8
20260507071003 10 318 0.0 1.6 0.00 0.00 0.00 65 1014.7
20260507070503 9 285 0.0 3.2 0.00 0.00 0.00 66 1014.7
20260507070007 8 310 0.0 4.8 0.00 0.00 0.00 66 1014.7
20260507065503 8 301 0.0 4.8 0.00 0.00 0.00 66 1014.7
20260507065002 8 188 0.0 3.2 0.00 0.00 0.00 65 1014.7
20260507064502 8 305 0.0 3.2 0.00 0.00 0.00 65 1014.7
20260507064003 7 312 0.0 4.8 0.00 0.00 0.00 64 1014.7
20260507063503 7 308 0.0 4.8 0.00 0.00 0.00 63 1014.6
20260507063002 6 247 0.0 3.2 0.00 0.00 0.00 59 1014.6
20260507062503 5 214 0.0 1.6 0.00 0.00 0.00 55 1014.5
20260507062003 5 0 0.0 0.0 0.00 0.00 0.00 55 1014.5
20260507061503 5 0 0.0 0.0 0.00 0.00 0.00 54 1014.5
20260507061003 4 0 0.0 0.0 0.00 0.00 0.00 53 1014.5
20260507060503 4 0 0.0 0.0 0.00 0.00 0.00 51 1014.5
20260507060025 3 0 0.0 0.0 0.00 0.00 0.00 49 1014.4
20260507055503 3 0 0.0 0.0 0.00 0.00 0.00 46 1014.4
20260507055003 3 0 0.0 0.0 0.00 0.00 0.00 41 1014.3
20260507054502 3 0 0.0 0.0 0.00 0.00 0.00 37 1014.4
20260507054024 2 0 0.0 0.0 0.00 0.00 0.00 33 1014.4
20260507053503 2 0 0.0 0.0 0.00 0.00 0.00 29 1014.3
20260507053003 2 0 0.0 0.0 0.00 0.00 0.00 26 1014.3
20260507052503 1 0 0.0 0.0 0.00 0.00 0.00 19 1014.2
20260507052003 1 0 0.0 0.0 0.00 0.00 0.00 16 1014.2
20260507051503 1 0 0.0 0.0 0.00 0.00 0.00 16 1014.1
20260507051003 1 0 0.0 0.0 0.00 0.00 0.00 17 1014.1
20260507050503 0 0 0.0 0.0 0.00 0.00 0.00 16 1014.0
20260507050003 0 0 0.0 0.0 0.00 0.00 0.00 17 1014.0
20260507045502 0 0 0.0 0.0 0.00 0.00 0.00 17 1014.0
20260507045002 0 0 0.0 0.0 0.00 0.00 0.00 19 1013.9
20260507044503 0 0 0.0 0.0 0.00 0.00 0.00 20 1013.9
20260507044003 0 0 0.0 0.0 0.00 0.00 0.00 21 1013.8
20260507043523 0 0 0.0 0.0 0.00 0.00 0.00 21 1013.9
20260507043003 0 0 0.0 0.0 0.00 0.00 0.00 21 1013.8
20260507042524 0 0 0.0 0.0 0.00 0.00 0.00 21 1013.8
20260507042003 0 0 0.0 0.0 0.00 0.00 0.00 21 1013.8
20260507041524 0 0 0.0 0.0 0.00 0.00 0.00 23 1013.8
20260507041024 0 0 0.0 0.0 0.00 0.00 0.00 25 1013.7
20260507040503 0 0 0.0 0.0 0.00 0.00 0.00 27 1013.7
20260507040003 0 0 0.0 0.0 0.00 0.00 0.00 29 1013.7
20260507035503 0 0 0.0 0.0 0.00 0.00 0.00 29 1013.7
20260507035002 0 0 0.0 0.0 0.00 0.00 0.00 28 1013.6
20260507034503 0 0 0.0 0.0 0.00 0.00 0.00 28 1013.5
20260507034003 0 0 0.0 0.0 0.00 0.00 0.00 30 1013.6
20260507033524 -1 0 0.0 0.0 0.00 0.00 0.00 32 1013.6
20260507033003 -1 0 0.0 0.0 0.00 0.00 0.00 33 1013.6
20260507032503 -1 0 0.0 0.0 0.00 0.00 0.00 35 1013.5
20260507032024 -1 0 0.0 0.0 0.00 0.00 0.00 36 1013.6
20260507031503 -1 0 0.0 0.0 0.00 0.00 0.00 37 1013.6
20260507031003 -1 0 0.0 0.0 0.00 0.00 0.00 37 1013.6
20260507030503 -1 0 0.0 0.0 0.00 0.00 0.00 38 1013.5
20260507030003 0 0 0.0 0.0 0.00 0.00 0.00 39 1013.5
20260507025503 0 0 0.0 0.0 0.00 0.00 0.00 39 1013.5
20260507025003 0 0 0.0 0.0 0.00 0.00 0.00 39 1013.5
20260507024503 0 0 0.0 0.0 0.00 0.00 0.00 40 1013.4
20260507024023 0 0 0.0 0.0 0.00 0.00 0.00 41 1013.4
20260507023503 0 0 0.0 0.0 0.00 0.00 0.00 41 1013.4
20260507023003 0 0 0.0 0.0 0.00 0.00 0.00 41 1013.3
20260507022503 0 0 0.0 0.0 0.00 0.00 0.00 41 1013.3
20260507022024 0 0 0.0 0.0 0.00 0.00 0.00 42 1013.2
20260507021524 0 0 0.0 0.0 0.00 0.00 0.00 41 1013.2
20260507021003 0 0 0.0 0.0 0.00 0.00 0.00 40 1013.2
20260507020503 0 0 0.0 0.0 0.00 0.00 0.00 40 1013.2
20260507020003 0 0 0.0 0.0 0.00 0.00 0.00 42 1013.1
20260507015503 0 0 0.0 0.0 0.00 0.00 0.00 44 1013.1
20260507015003 0 0 0.0 0.0 0.00 0.00 0.00 45 1013.1
20260507014503 0 0 0.0 0.0 0.00 0.00 0.00 47 1013.1
20260507014002 0 0 0.0 0.0 0.00 0.00 0.00 49 1013.0
20260507013503 0 0 0.0 0.0 0.00 0.00 0.00 49 1013.0
20260507013024 0 0 0.0 0.0 0.00 0.00 0.00 51 1013.0
20260507012503 0 0 0.0 0.0 0.00 0.00 0.00 51 1013.0
20260507012003 0 0 0.0 0.0 0.00 0.00 0.00 52 1012.9
20260507011524 0 0 0.0 0.0 0.00 0.00 0.00 52 1012.9
20260507010503 0 0 0.0 0.0 0.00 0.00 0.00 54 1013.0
20260507010024 0 0 0.0 0.0 0.00 0.00 0.00 53 1012.9
20260507005503 0 0 0.0 0.0 0.00 0.00 0.00 55 1012.9
20260507005003 0 0 0.0 0.0 0.00 0.00 0.00 56 1012.9
20260507004503 0 0 0.0 0.0 0.00 0.00 0.00 56 1012.9
20260507004003 0 0 0.0 0.0 0.00 0.00 0.00 56 1012.9
20260507003503 1 0 0.0 0.0 0.00 0.00 0.00 58 1012.8
20260507003003 1 0 0.0 0.0 0.00 0.00 0.00 59 1012.8
20260507002503 1 0 0.0 0.0 0.00 0.00 0.00 60 1012.8
20260507002003 1 0 0.0 0.0 0.00 0.00 0.00 60 1012.8
20260507001503 1 0 0.0 0.0 0.00 0.00 0.00 61 1012.8
20260507001003 1 0 0.0 0.0 0.00 0.00 0.00 62 1012.7
20260507000503 1 0 0.0 0.0 0.00 0.00 0.00 63 1012.7
20260507000004 1 0 0.0 0.0 0.00 0.00 0.00 63 1012.7
20260506235503 1 0 0.0 0.0 0.00 0.00 0.00 64 1012.6
20260506235003 1 0 0.0 0.0 0.00 0.00 0.00 65 1012.7
20260506234502 1 0 0.0 0.0 0.00 0.00 0.00 65 1012.6
20260506234003 1 0 0.0 0.0 0.00 0.00 0.00 66 1012.7
20260506233524 1 0 0.0 0.0 0.00 0.00 0.00 67 1012.7
20260506233003 1 0 0.0 0.0 0.00 0.00 0.00 67 1012.7
20260506232503 1 0 0.0 0.0 0.00 0.00 0.00 68 1012.6
20260506232003 1 0 0.0 0.0 0.00 0.00 0.00 69 1012.6
20260506231503 2 0 0.0 0.0 0.00 0.00 0.00 69 1012.6
20260506231003 2 0 0.0 0.0 0.00 0.00 0.00 69 1012.5
20260506230503 2 0 0.0 0.0 0.00 0.00 0.00 69 1012.5
20260506230003 2 0 0.0 0.0 0.00 0.00 0.00 69 1012.5
20260506225503 2 0 0.0 0.0 0.00 0.00 0.00 69 1012.3
20260506225024 2 0 0.0 0.0 0.00 0.00 0.00 70 1012.3
20260506224502 2 0 0.0 0.0 0.00 0.00 0.00 70 1012.2
20260506224003 2 0 0.0 0.0 0.00 0.00 0.00 70 1012.2
20260506223502 2 0 0.0 0.0 0.00 0.00 0.00 70 1012.2
20260506223003 2 0 0.0 0.0 0.00 0.00 0.00 70 1012.2
20260506222503 2 0 0.0 0.0 0.00 0.00 0.00 70 1012.2
20260506222003 2 0 0.0 0.0 0.00 0.00 0.00 70 1012.1
20260506221504 3 0 0.0 0.0 0.00 0.00 0.00 70 1012.1
20260506221003 3 0 0.0 0.0 0.00 0.00 0.00 70 1012.1
20260506220503 3 0 0.0 0.0 0.00 0.00 0.00 70 1012.0
20260506220005 3 0 0.0 0.0 0.00 0.00 0.00 70 1012.1
20260506215503 3 0 0.0 0.0 0.00 0.00 0.00 70 1012.0
20260506215023 3 0 0.0 0.0 0.00 0.00 0.00 70 1012.0
20260506214503 3 0 0.0 0.0 0.00 0.00 0.00 70 1011.9
20260506214003 3 0 0.0 0.0 0.00 0.00 0.00 70 1011.9